Wind_Speed
13 12 9 9 8 6 5 4 2 2 3 4 5 6 5 4 2 3 4 4 4 4 3 3 3 4 5 5 6 6 6 6 6 5 5 5 4 4 4 3 3 3 3 3
14 13 12 13 11 9 7 6 4 3 4 5 6 5 4 5 4 4 4 4 4 3 3 2 2 3 3 4 4 4 5 5 5 5 5 4 4 3 3 3 3 2 3 3
15 14 15 14 13 11 10 8 7 6 6 6 6 5 5 5 5 5 4 4 4 4 3 3 2 2 2 3 3 4 4 4 4 4 4 4 4 3 3 3 3 2 3 3
17 16 16 15 14 13 12 11 10 10 8 7 7 5 4 5 5 5 4 5 5 4 3 3 3 3 3 2 2 2 2 2 2 3 3 3 3 3 2 2 3 3 3 3
18 18 18 16 15 14 13 13 13 11 10 9 7 7 5 5 5 5 6 6 5 5 4 4 4 4 3 3 3 3 2 2 2 2 3 3 3 2 2 2 3 3 3 4
19 19 18 17 17 16 15 15 14 13 12 10 8 8 6 6 6 6 6 7 6 5 5 6 5 5 4 4 3 3 3 3 3 3 3 4 4 4 3 3 3 3 4 4
22 20 19 18 18 17 16 15 15 14 13 11 10 9 7 7 8 8 7 7 7 6 6 7 6 6 5 5 5 5 4 4 4 3 4 4 5 5 4 4 4 4 5 5
22 21 19 19 19 18 18 17 16 15 14 12 11 11 9 8 8 9 8 8 8 8 8 7 7 7 7 7 7 7 6 6 5 5 5 5 4 5 5 5 5 5 5 6
22 21 21 20 19 19 19 18 17 17 16 14 13 11 10 10 9 9 9 9 8 8 7 8 8 8 8 8 9 9 8 7 7 7 6 6 6 6 6 6 6 6 7 7
22 22 22 21 21 20 19 19 19 18 17 16 15 13 12 11 10 10 10 10 9 9 8 8 8 9 10 10 10 10 10 10 10 9 8 8 8 8 7 7 7 7 8 8
23 24 23 22 22 22 21 21 20 20 19 18 17 14 13 13 13 12 11 11 12 11 10 10 10 10 11 11 11 11 11 12 11 10 10 10 10 9 9 8 8 9 9 10
25 25 25 24 24 24 24 23 22 21 20 20 19 16 15 15 15 14 13 13 13 12 11 11 12 13 13 13 13 13 13 13 13 13 12 12 12 11 11 10 10 11 11 11
27 27 26 26 26 26 25 24 23 23 22 22 21 18 16 16 16 16 15 14 13 13 13 13 14 14 14 14 13 13 13 14 14 15 14 14 14 13 13 13 13 13 13 14
30 29 29 28 26 26 26 25 25 24 24 23 21 20 18 18 17 17 16 16 15 15 15 15 15 15 14 14 14 15 15 15 16 17 17 16 15 14 15 14 14 15 15 16
32 31 31 30 29 29 28 27 26 25 25 24 22 22 20 20 18 17 17 17 17 17 17 16 16 16 15 15 15 16 17 16 17 17 17 16 15 15 16 16 17 17 17 18
32 32 32 32 31 31 30 29 28 27 26 25 24 23 22 21 21 20 19 19 18 18 17 17 17 17 17 17 16 16 18 17 17 16 16 16 16 17 18 18 18 19 19 19
32 32 32 33 32 33 32 29 28 28 27 27 25 23 23 23 23 23 21 20 19 18 17 17 17 18 18 18 18 17 17 17 17 17 17 18 18 19 20 20 20 20 20 20
33 33 32 32 32 34 32 30 29 28 27 27 26 24 24 24 24 24 22 21 20 20 19 18 18 18 18 19 18 18 19 20 20 19 18 19 20 21 21 21 21 22 22 22
34 33 33 33 33 33 32 31 30 29 28 26 26 25 25 24 24 23 22 21 21 21 20 20 20 19 19 21 20 20 21 21 19 19 19 20 21 22 23 22 22 23 22 22
36 35 34 34 34 34 32 31 31 30 29 28 27 26 26 25 25 24 23 23 23 22 22 21 21 22 22 22 22 22 21 21 20 19 20 21 22 22 23 23 24 23 22 22
35 35 34 33 34 34 32 31 30 31 29 28 28 27 27 26 25 24 23 23 23 23 22 23 23 24 25 24 23 23 23 22 22 21 21 22 22 23 23 24 24 23 23 23
35 35 35 34 34 34 32 31 30 30 29 29 28 28 27 27 26 26 25 25 24 24 24 25 26 25 25 26 25 25 24 24 23 23 23 23 23 24 25 25 25 25 25 24
35 35 35 35 35 34 32 32 31 31 30 30 29 28 28 28 28 27 26 25 25 25 25 25 26 25 25 25 25 25 25 25 25 25 24 24 24 24 25 25 24 25 25 25
35 35 35 34 33 33 33 33 33 32 31 31 30 29 29 29 29 28 27 26 27 26 26 25 25 25 25 25 25 26 26 26 26 26 26 26 26 26 26 26 26 26 26 26
34 34 34 34 33 33 33 33 32 32 31 31 31 30 29 29 30 28 27 27 27 28 27 27 27 26 25 26 26 27 27 28 28 27 27 27 28 28 28 28 28 27 27 28
35 34 34 34 33 33 34 34 33 32 32 32 32 32 30 29 29 29 29 28 28 29 29 30 29 28 28 28 28 27 27 28 29 28 28 29 30 30 29 29 28 28 28 28
Wind_Direction
222 222 223 227 227 224 227 235 263 336 323 330 346 353 357 7 4 2 3 5 13 21 26 34 28 31 36 36 38 40 41 38 41 46 48 50 45 44 47 53 59 47 45 48
222 224 225 229 232 234 240 242 254 275 293 309 324 343 347 337 332 337 337 336 342 1 6 12 11 10 23 26 28 31 35 34 34 35 34 32 32 35 41 44 46 35 26 14
225 225 229 232 236 241 244 244 250 259 272 294 311 333 333 318 317 319 323 320 315 324 337 334 333 336 349 358 358 10 19 23 22 21 20 19 18 24 31 35 27 20 15 9
227 229 232 235 239 246 247 248 252 259 266 280 298 315 325 319 312 309 312 307 296 293 299 305 308 315 316 320 318 334 355 3 5 1 358 354 1 7 19 19 15 10 5 2
228 231 232 235 239 245 248 251 255 259 265 272 286 295 307 305 309 300 302 308 295 283 280 281 290 297 298 301 296 301 309 313 331 347 353 352 341 339 350 354 348 338 335 336
228 230 232 233 235 241 245 251 255 260 265 271 277 282 290 292 305 302 298 299 288 275 270 266 274 283 285 286 282 284 290 298 309 320 332 333 331 328 325 328 317 314 314 321
229 230 231 230 233 239 243 249 256 261 265 272 273 272 279 291 295 297 301 300 288 277 273 267 267 275 277 281 276 271 270 276 287 297 306 314 316 317 316 316 310 306 305 307
230 228 229 229 233 238 244 250 256 263 268 271 270 272 279 286 291 294 297 296 292 285 280 274 270 270 275 280 278 271 267 269 274 283 292 298 300 306 309 310 306 302 301 304
230 229 230 230 232 236 240 246 253 258 263 265 267 273 280 283 285 290 293 291 294 294 296 288 277 273 279 282 279 273 270 269 274 281 284 286 289 293 299 300 302 301 298 299
231 231 230 232 234 236 239 243 247 253 259 262 267 271 278 278 279 286 290 286 291 298 296 292 287 284 284 287 285 278 272 270 275 278 278 281 283 288 289 290 292 297 297 294
232 233 231 232 234 237 240 242 247 253 257 261 265 271 276 280 281 285 292 290 290 295 293 288 285 285 284 282 281 276 270 270 272 274 274 275 278 284 287 290 289 288 290 292
233 234 234 234 236 239 243 246 249 253 256 260 264 269 272 277 277 280 286 290 289 286 287 288 287 286 281 280 278 275 270 268 269 267 267 270 272 277 282 285 286 285 286 289
234 236 237 237 237 239 244 248 250 254 257 260 264 269 270 275 274 276 281 281 282 283 286 289 287 285 281 279 277 276 271 269 271 267 269 270 271 274 279 282 284 284 284 285
237 238 240 241 242 243 245 248 252 255 258 261 265 269 269 271 273 275 277 278 279 280 282 286 287 284 280 276 275 275 274 271 270 268 267 270 271 272 276 279 284 283 286 286
240 241 241 243 244 247 248 249 251 254 258 262 266 267 269 269 272 275 276 276 279 281 281 283 282 281 280 276 274 273 273 272 272 269 264 267 272 273 275 277 280 283 285 288
241 242 244 244 246 247 249 250 251 255 259 263 264 265 267 269 272 274 276 278 278 280 282 284 281 279 280 276 274 271 271 273 272 269 265 266 271 274 276 277 279 282 284 286
242 243 244 246 246 248 248 251 254 257 259 262 264 266 266 268 271 275 277 277 277 276 280 280 279 279 277 276 277 275 276 274 271 271 271 272 275 277 278 277 279 281 283 285
243 244 245 246 246 247 248 251 254 257 258 259 261 262 263 267 270 274 276 275 274 275 278 279 279 277 275 274 275 276 278 279 278 277 278 279 278 278 279 279 279 281 284 285
242 244 246 247 248 249 248 250 252 255 256 257 259 260 262 264 268 271 272 271 272 274 275 277 276 273 274 277 279 277 273 277 280 281 281 280 282 282 282 281 284 282 283 285
241 244 246 248 248 249 250 252 252 253 254 255 258 260 261 263 266 269 271 271 270 273 275 275 276 274 274 275 277 278 276 277 281 281 280 280 281 283 284 284 286 282 283 285
241 243 246 248 249 250 251 253 253 253 255 255 257 258 260 261 264 266 269 270 271 273 274 275 277 277 278 277 277 278 278 278 279 279 278 281 282 283 283 282 283 281 284 285
241 244 246 248 251 251 252 253 254 254 253 255 257 258 258 259 261 263 266 269 269 272 273 276 279 281 280 279 278 277 276 278 280 281 280 280 283 285 286 284 283 283 285 287
242 243 245 248 251 250 250 251 252 252 253 255 258 261 261 261 261 262 264 267 269 271 274 276 279 280 282 282 279 277 277 279 281 282 281 280 283 283 285 286 287 287 288 288
243 244 245 247 248 248 249 249 250 251 253 254 257 261 263 262 261 261 262 266 268 271 274 275 278 279 281 282 280 278 277 277 279 278 279 280 282 282 284 285 287 288 288 288
242 244 245 246 246 248 248 249 249 251 252 254 256 259 263 263 263 262 264 268 270 272 272 274 276 276 278 281 281 278 277 276 276 277 279 279 278 280 282 283 284 285 286 287
241 243 245 246 246 248 248 250 250 252 254 256 257 259 261 262 263 263 264 266 268 270 271 272 274 275 277 279 279 277 275 276 275 276 277 278 279 278 280 281 281 284 287 288
Height
5904 5907 5907 5908 5908 5909 5909 5910 5910 5910 5909 5909 5908 5908 5907 5906 5906 5905 5904 5903 5902 5901 5901 5900 5899 5899 5899 5898 5897 5896 5896 5895 5894 5893 5893 5892 5892 5891 5891 5890 5890 5889 5889 5888
5904 5905 5906 5905 5907 5908 5908 5909 5910 5910 5909 5908 5908 5907 5907 5907 5906 5905 5905 5904 5902 5901 5900 5900 5900 5899 5899 5898 5898 5897 5896 5896 5895 5894 5893 5893 5892 5892 5891 5890 5890 5889 5889 5888
5901 5904 5903 5904 5905 5906 5907 5909 5909 5909 5908 5907 5907 5908 5907 5907 5906 5905 5904 5903 5902 5901 5900 5900 5899 5899 5899 5898 5898 5897 5897 5896 5895 5894 5893 5893 5892 5892 5891 5890 5890 5889 5889 5888
5898 5900 5901 5902 5904 5905 5906 5907 5907 5907 5907 5907 5907 5907 5907 5906 5905 5904 5904 5903 5902 5901 5900 5900 5899 5899 5898 5898 5898 5897 5896 5896 5895 5894 5893 5893 5892 5892 5891 5890 5890 5889 5888 5888
5896 5897 5899 5900 5902 5903 5904 5905 5905 5906 5906 5906 5906 5906 5907 5905 5904 5904 5903 5901 5901 5900 5900 5899 5899 5898 5898 5897 5897 5897 5896 5895 5895 5894 5893 5892 5892 5891 5890 5890 5889 5888 5888 5887
5893 5894 5896 5898 5900 5900 5902 5903 5903 5903 5904 5905 5905 5905 5905 5904 5903 5903 5902 5901 5900 5899 5899 5899 5898 5897 5897 5896 5896 5896 5895 5895 5894 5894 5893 5892 5891 5891 5890 5889 5888 5887 5887 5886
5889 5891 5893 5895 5896 5898 5899 5900 5901 5901 5901 5903 5903 5903 5904 5903 5902 5901 5900 5899 5898 5898 5897 5897 5897 5896 5896 5895 5895 5895 5894 5894 5894 5893 5892 5891 5891 5890 5889 5888 5887 5886 5885 5885
5885 5888 5890 5891 5893 5894 5896 5897 5899 5899 5899 5900 5901 5900 5902 5901 5901 5900 5899 5898 5897 5897 5896 5896 5895 5895 5894 5894 5894 5893 5893 5893 5892 5892 5891 5890 5889 5889 5888 5887 5886 5885 5884 5883
5880 5884 5886 5887 5889 5891 5892 5894 5895 5896 5896 5897 5897 5898 5899 5899 5899 5898 5897 5896 5895 5895 5894 5894 5894 5893 5893 5892 5892 5891 5891 5891 5891 5890 5890 5889 5888 5887 5887 5886 5885 5884 5883 5882
5876 5879 5882 5883 5885 5887 5889 5891 5892 5892 5893 5893 5895 5895 5897 5897 5896 5896 5895 5894 5893 5892 5892 5892 5891 5891 5891 5890 5890 5889 5889 5889 5889 5888 5888 5887 5887 5886 5885 5884 5883 5882 5881 5880
5871 5874 5877 5879 5881 5883 5885 5887 5888 5889 5890 5890 5891 5895 5894 5894 5893 5893 5892 5891 5890 5890 5889 5889 5888 5888 5888 5888 5887 5887 5886 5886 5886 5885 5885 5885 5884 5883 5882 5881 5881 5880 5879 5877
5866 5869 5872 5875 5877 5879 5880 5882 5884 5886 5886 5887 5887 5892 5890 5890 5890 5890 5890 5889 5888 5887 5886 5886 5886 5885 5885 5884 5884 5883 5883 5882 5882 5882 5882 5881 5881 5880 5880 5879 5878 5877 5876 5875
5861 5864 5866 5869 5873 5875 5876 5878 5879 5881 5882 5882 5883 5888 5886 5886 5886 5886 5886 5885 5885 5884 5883 5883 5882 5882 5881 5880 5880 5879 5879 5879 5879 5878 5878 5878 5877 5877 5876 5875 5874 5873 5872 5871
5855 5857 5861 5864 5866 5869 5871 5873 5874 5875 5876 5877 5879 5881 5881 5881 5882 5882 5882 5882 5881 5880 5880 5879 5878 5878 5877 5876 5876 5876 5875 5875 5874 5873 5873 5873 5873 5873 5872 5871 5870 5869 5868 5867
5848 5851 5854 5857 5860 5862 5865 5867 5869 5870 5871 5873 5874 5875 5876 5876 5877 5878 5877 5877 5877 5876 5876 5875 5874 5873 5872 5872 5872 5871 5871 5870 5869 5868 5868 5868 5869 5868 5868 5867 5866 5865 5863 5862
5840 5843 5847 5850 5853 5855 5857 5860 5863 5864 5866 5867 5868 5870 5871 5871 5872 5872 5872 5872 5872 5872 5871 5870 5869 5868 5867 5867 5866 5866 5865 5865 5864 5863 5863 5863 5863 5863 5862 5862 5860 5860 5858 5857
5834 5837 5839 5843 5845 5847 5850 5854 5856 5858 5860 5862 5863 5865 5865 5866 5866 5866 5867 5867 5867 5866 5866 5865 5864 5863 5862 5861 5861 5860 5860 5860 5859 5858 5858 5858 5858 5857 5857 5856 5855 5854 5853 5852
5827 5829 5832 5835 5838 5839 5846 5847 5849 5851 5853 5855 5856 5858 5859 5860 5861 5861 5861 5861 5861 5861 5861 5860 5859 5859 5858 5856 5856 5855 5855 5855 5854 5853 5853 5853 5852 5851 5850 5849 5848 5847 5846 5845
5819 5822 5824 5827 5829 5832 5837 5839 5842 5845 5847 5849 5850 5852 5853 5853 5854 5855 5855 5855 5855 5855 5855 5855 5854 5853 5853 5852 5851 5850 5849 5849 5848 5847 5847 5846 5846 5845 5844 5843 5842 5841 5840 5838
5811 5814 5817 5819 5822 5824 5831 5833 5835 5838 5840 5843 5843 5845 5846 5847 5848 5849 5849 5849 5849 5849 5849 5849 5848 5848 5847 5846 5845 5844 5843 5842 5842 5841 5840 5839 5839 5838 5837 5836 5835 5834 5833 5831
5803 5806 5808 5811 5814 5817 5822 5825 5828 5832 5834 5835 5836 5838 5839 5840 5842 5843 5843 5843 5843 5843 5842 5842 5842 5841 5840 5839 5838 5837 5836 5836 5835 5833 5833 5832 5831 5830 5830 5829 5828 5827 5826 5824
5795 5798 5801 5804 5807 5812 5814 5817 5821 5823 5825 5827 5829 5830 5832 5833 5834 5835 5836 5836 5836 5836 5836 5835 5835 5834 5832 5831 5830 5830 5829 5828 5827 5827 5826 5826 5825 5824 5823 5822 5821 5820 5819 5818
5787 5791 5793 5797 5801 5804 5806 5809 5812 5814 5817 5819 5821 5823 5824 5826 5827 5827 5828 5829 5829 5829 5828 5828 5827 5826 5825 5824 5823 5822 5821 5821 5820 5820 5819 5819 5818 5817 5816 5816 5814 5813 5812 5811
5779 5782 5785 5788 5791 5795 5798 5801 5804 5806 5809 5811 5813 5815 5816 5817 5818 5819 5820 5821 5821 5821 5821 5820 5820 5819 5818 5816 5815 5814 5814 5814 5813 5813 5812 5812 5811 5810 5809 5809 5807 5806 5805 5803
5771 5774 5777 5780 5784 5786 5789 5792 5795 5798 5801 5803 5805 5807 5808 5809 5810 5810 5811 5812 5813 5813 5813 5813 5812 5811 5810 5809 5808 5807 5806 5806 5805 5805 5804 5804 5804 5802 5802 5801 5800 5799 5798 5796
5763 5766 5769 5772 5776 5779 5782 5784 5787 5790 5792 5795 5797 5799 5800 5800 5801 5802 5803 5803 5803 5804 5804 5804 5803 5802 5802 5801 5800 5799 5798 5798 5797 5797 5796 5795 5794 5793 5793 5792 5791 5790 5789 5788